Find STARLINK-37861

NORAD ID: 799500982 Int'l Des: 2026-135G Constellation: starlink operational

当前视图

正在加载3D地球...

About STARLINK-37861

STARLINK-37861 (NORAD 799500982) is a starlink constellation satellite launched Jun 8, 2026

关于 STARLINK-37861

正在加载描述...

即将过境

Passes for default location (London). Set your location on the main map for personalized predictions.

高度历史

Loading altitude history...

两行轨道根数

1 99999C 2026135G 26167.13034721 .00409480 00000-0 634590-4 0 1670
2 99999 97.2794 193.9407 0010562 265.2037 118.7409 16.03851759 13
Epoch: Jun 16, 2026 • Age: 4 hours